Date,TemperatureHighF,TemperatureAvgF,TemperatureLowF,DewpointHighF,DewpointAvgF,DewpointLowF,HumidityHigh,HumidityAvg,HumidityLow,PressureMaxIn,PressureMinIn,WindSpeedMaxMPH,WindSpeedAvgMPH,GustSpeedMaxMPH,PrecipitationSumIn
2013-3-1,28,20,14,22,17,12,93,87,67,30.53,30.43,26,15,0,0.00
2013-3-2,36,28,21,24,20,17,93,74,56,30.44,30.01,32,20,0,0.00
2013-3-3,33,29,25,27,21,16,92,73,55,30.01,29.55,29,17,0,0.00
2013-3-4,25,18,11,20,13,1,91,83,56,29.93,29.57,23,12,0,0.00
2013-3-6,41,36,32,14,12,10,46,37,30,29.86,29.67,43,19,0,0.00
2013-3-7,43,36,31,17,12,5,50,38,27,29.83,29.66,35,16,0,0.00
2013-3-8,43,34,25,23,13,5,93,46,28,29.80,29.50,30,13,0,0.00
2013-3-9,26,18,10,22,16,8,100,91,86,30.15,29.46,14,7,0,0.00
2013-3-10,31,18,8,25,14,6,90,83,69,30.38,30.15,28,8,0,0.01
2013-3-11,28,22,18,22,17,12,93,83,70,30.16,29.92,31,15,0,0.01
2013-3-12,34,24,16,24,20,14,93,85,63,30.29,30.14,26,11,0,0.00
2013-3-13,40,30,24,25,20,-100,88,73,50,30.30,30.19,28,-1,0,0.00
2013-3-14,46,38,30,22,20,15,64,50,30,30.30,30.04,28,16,0,0.00
2013-3-15,47,40,32,26,21,16,79,48,35,30.02,29.72,26,15,0,0.00
2013-3-16,38,32,28,25,18,4,86,57,33,29.77,29.67,18,11,0,0.00
2013-3-17,29,22,9,22,12,-2,92,65,42,29.80,29.44,35,17,0,0.00
2013-3-18,21,14,7,18,7,0,92,73,59,30.09,29.80,27,15,0,0.00
2013-3-19,29,20,10,6,-3,-12,76,41,19,30.34,30.04,30,13,0,0.00
2013-3-20,36,26,18,24,7,-12,90,49,24,30.33,29.77,30,17,0,0.00
2013-3-21,29,22,12,25,18,7,93,83,57,29.81,29.51,30,18,0,0.00
2013-3-22,19,12,8,9,5,0,89,72,49,30.00,29.79,23,10,0,0.00
2013-3-23,8,4,1,5,1,-3,87,86,85,30.38,29.98,13,6,0,0.00
2013-3-24,10,4,0,7,1,-3,88,86,85,30.46,30.31,16,6,0,0.00
2013-3-25,19,9,0,13,2,-8,87,75,37,30.55,30.38,22,9,0,0.00
2013-3-26,34,23,13,22,13,2,86,66,54,30.38,30.04,28,14,0,0.00
2013-3-27,38,30,23,25,21,18,94,73,46,30.06,29.98,17,9,0,0.01
2013-3-28,43,35,28,24,20,14,76,57,33,30.04,29.99,16,8,0,0.00
2013-3-29,41,34,28,31,25,22,90,69,51,30.04,29.97,18,11,0,0.00
2013-3-30,41,32,27,28,22,15,80,68,49,30.12,29.97,28,11,0,0.00
2013-3-31,46,34,24,22,17,10,90,53,24,30.10,29.95,29,14,0,0.00